GFSNW_sfc_temp_003.txt.gz
Temp
55 55 55 54 53 53 49 43 35 50 53 39 40 35 38 45 42 44 43 43 42 39 35 32 31 31 38 44 42 36 39 34 28 32 41 45 42 36 35 28 22 31 29 32
55 55 55 54 54 53 46 41 43 50 51 33 35 41 42 44 43 41 43 41 44 45 38 32 34 38 46 45 43 39 41 34 27 30 35 38 35 37 39 39 37 29 26 33
55 55 54 54 53 53 49 44 36 42 44 45 40 39 38 39 48 47 48 46 46 41 38 41 37 38 46 47 47 48 44 36 32 28 32 37 32 36 40 37 30 32 34 39
55 55 54 54 53 53 50 44 40 41 36 38 41 42 43 39 38 47 48 43 43 40 37 38 36 40 44 47 48 43 40 32 33 36 38 36 36 37 38 36 38 33 39 39
55 54 54 53 52 52 48 43 42 43 40 44 42 42 40 41 43 43 42 40 44 43 39 40 36 42 43 43 43 41 42 33 33 32 36 35 34 36 40 41 42 42 41 40
54 54 54 53 52 51 43 45 49 47 43 42 40 41 41 42 46 45 46 44 43 42 44 46 47 45 47 48 43 39 36 33 33 30 38 36 31 36 39 42 45 43 35 44
54 54 53 53 53 51 47 45 44 43 38 42 43 44 44 43 44 42 45 47 44 49 53 49 47 47 45 47 46 44 36 34 34 32 36 29 40 49 49 45 44 44 43 45
53 54 53 53 53 53 47 48 46 45 40 44 44 45 44 44 44 43 43 46 49 51 48 42 38 39 41 40 41 42 44 39 35 33 31 38 40 43 43 40 39 46 44 46
53 53 53 53 53 53 48 47 50 46 43 42 48 45 44 40 40 41 42 46 49 48 44 41 35 33 32 31 36 40 40 40 38 36 28 29 39 45 49 48 38 48 47 46
53 53 53 53 53 53 49 47 51 47 40 47 47 44 42 45 40 37 40 44 43 46 41 38 35 35 36 30 30 32 36 38 33 34 32 34 42 45 47 36 39 45 49 48
52 53 53 53 53 52 49 47 50 48 45 47 49 49 44 42 43 39 43 41 42 41 38 38 37 35 35 32 33 33 35 37 31 32 28 26 43 43 41 44 40 43 43 40
52 52 53 53 53 52 51 45 51 52 47 45 49 49 50 52 51 46 44 43 43 44 41 41 41 36 35 36 31 36 35 39 36 37 36 43 43 42 42 44 42 39 40 40
52 52 52 53 53 53 51 46 49 49 46 45 45 46 51 52 53 54 43 44 47 45 46 44 41 36 38 35 34 34 38 42 39 41 40 40 41 42 43 43 41 40 42 42
52 52 52 52 52 52 52 45 48 48 47 41 43 49 45 48 49 50 50 47 48 47 47 43 38 37 39 36 37 37 40 41 40 39 38 39 42 41 41 40 42 42 42 43
51 51 51 51 51 52 49 47 48 50 47 42 44 47 46 48 48 48 48 47 46 46 44 43 41 39 39 36 37 35 40 41 40 38 45 46 43 43 42 41 40 41 41 40
50 50 51 51 51 51 45 43 49 51 51 44 40 48 46 47 48 48 47 47 46 46 45 44 45 46 44 34 33 43 43 44 46 45 42 40 40 41 42 40 40 41 40 41
50 50 50 50 50 46 40 42 46 49 49 44 38 40 47 47 47 47 46 48 46 46 45 44 44 44 45 40 34 44 43 43 41 41 43 41 39 39 40 41 41 41 39 38
50 50 50 50 50 49 43 47 50 49 47 45 36 37 41 47 44 43 47 45 46 45 44 43 42 41 42 38 41 40 39 40 40 39 40 43 39 39 38 39 40 38 36 35
50 49 49 46 42 41 45 51 51 51 48 40 38 35 34 45 43 43 43 44 41 44 41 41 41 38 36 41 43 41 40 42 38 37 38 39 39 37 38 38 38 36 34 34
48 43 39 38 40 45 48 47 44 42 43 43 40 41 38 42 42 39 41 40 39 34 40 40 38 37 43 44 45 44 42 39 39 36 29 31 31 34 35 37 39 39 36 33
37 36 33 38 43 40 44 37 38 40 36 41 38 39 39 42 39 39 38 35 34 30 34 37 34 36 39 41 42 41 39 41 40 40 39 40 40 37 35 34 34 34 35 33
40 39 41 37 34 35 33 33 35 37 36 38 39 37 38 38 42 38 37 33 34 33 35 34 32 37 34 37 38 38 38 39 39 40 39 38 38 38 36 34 33 32 32 31
40 36 31 31 32 29 30 29 33 33 36 36 37 34 38 37 39 34 33 33 33 31 30 30 33 30 33 34 34 34 37 38 37 36 37 37 34 35 35 32 31 31 29 29
32 29 25 26 29 31 31 32 27 31 35 37 37 35 36 37 33 32 26 33 32 26 25 27 27 28 33 33 33 35 34 35 35 34 35 34 33 31 31 31 31 31 29 28
30 30 25 29 33 33 33 33 33 35 38 38 36 34 38 33 32 30 31 28 26 27 28 27 27 23 28 31 32 32 32 33 33 34 33 31 32 31 28 28 29 30 29 28
30 30 28 33 32 32 33 33 33 36 38 35 37 33 31 32 32 24 22 24 24 31 27 24 24 29 30 30 31 32 34 35 35 35 35 35 34 31 28 28 28 28 28 26
30 31 34 32 32 32 32 36 37 42 36 35 33 33 31 26 22 21 24 26 31 28 23 24 22 24 28 29 31 32 35 35 35 34 33 31 30 30 29 25 24 25 24 24

GFSNW_sfc_temp_006.txt.gz
Temp
55 55 55 55 55 53 50 42 35 50 53 37 38 33 38 44 40 43 45 43 43 39 36 32 30 31 36 43 41 36 40 35 27 31 39 43 40 36 34 27 21 26 21 29
54 55 55 55 54 54 45 39 43 50 50 33 35 38 40 42 40 41 42 40 44 45 39 32 33 35 44 44 41 37 40 33 27 28 34 38 35 37 38 36 33 25 21 31
54 55 55 54 54 54 48 40 36 42 44 43 40 38 37 37 45 43 45 44 43 41 39 38 34 35 44 44 44 47 45 36 31 27 31 34 32 34 37 35 27 29 31 36
54 54 54 53 53 53 48 43 37 40 33 38 41 42 40 38 38 44 46 43 43 40 36 38 35 39 41 44 47 45 40 31 33 35 37 34 35 34 35 32 34 30 36 38
54 54 54 53 52 52 45 41 40 42 39 43 39 38 38 38 42 43 41 39 43 42 39 40 36 39 40 39 43 41 41 32 33 32 36 35 33 36 36 36 37 37 38 38
54 54 54 53 52 51 42 43 45 45 43 41 37 37 38 40 45 46 45 45 43 41 44 47 48 48 45 45 43 38 36 33 32 29 36 36 30 35 37 39 40 40 34 41
53 53 53 53 53 52 46 45 44 42 37 42 40 43 42 41 44 41 43 46 44 49 52 51 47 43 43 43 44 45 35 33 33 30 33 28 39 43 43 40 43 44 45 45
53 53 53 53 54 53 47 47 44 44 39 44 42 44 42 45 44 43 44 46 48 51 49 41 37 38 37 39 42 42 43 36 33 31 31 37 39 43 39 38 39 46 45 48
53 53 53 53 53 54 48 47 48 46 41 40 48 44 43 40 40 41 44 45 46 49 44 39 34 29 35 31 35 36 40 42 35 34 30 27 37 43 47 47 36 47 47 47
53 52 53 53 53 53 49 47 49 46 43 45 49 44 43 45 42 40 39 40 42 45 40 37 35 33 37 29 30 35 35 34 32 33 33 33 41 42 47 36 39 43 49 48
52 52 52 53 53 53 49 46 50 47 44 46 50 49 43 42 42 39 42 42 42 41 37 37 37 36 34 31 33 33 33 32 31 31 28 27 42 42 37 43 41 41 41 40
52 52 53 52 53 53 51 44 50 51 45 44 48 49 49 50 51 46 44 43 43 44 41 39 41 37 33 33 29 34 33 38 35 36 35 43 41 42 44 43 42 38 39 39
52 52 52 52 52 53 51 44 47 48 46 45 44 45 49 52 53 54 44 44 47 45 46 42 39 38 37 32 33 32 36 40 38 39 39 39 40 41 40 40 38 39 40 40
51 52 51 51 52 52 51 44 46 44 46 41 41 48 45 47 49 50 51 48 48 47 46 44 40 38 39 35 37 36 40 39 39 38 40 41 41 40 38 38 39 40 41 41
51 51 51 51 51 51 49 46 46 48 45 41 43 45 44 46 47 47 49 47 46 45 43 43 41 40 38 35 36 34 40 41 40 38 44 44 42 40 40 39 38 41 40 39
51 50 50 50 50 50 42 40 48 50 49 44 39 47 45 47 48 47 47 47 46 45 44 44 45 46 42 34 33 43 41 42 45 44 40 38 39 40 39 38 39 40 39 41
50 50 50 50 50 43 39 40 45 49 47 44 38 38 46 47 47 47 47 47 46 45 44 44 44 43 44 40 36 44 42 43 40 40 41 40 39 40 39 40 39 39 37 38
50 50 50 50 50 48 41 46 49 48 44 45 36 37 41 47 43 43 47 44 45 45 44 43 42 42 42 37 41 40 38 39 39 37 39 42 38 38 37 38 39 37 36 37
50 49 48 46 43 39 43 46 47 48 46 39 38 35 33 44 43 43 44 45 41 44 41 41 41 39 36 41 42 41 39 41 37 36 37 38 38 36 37 38 38 37 35 34
48 42 38 37 38 46 45 45 44 42 43 43 39 40 38 42 42 39 40 41 39 34 40 41 38 38 45 45 45 45 42 39 38 35 31 32 32 35 36 37 38 38 36 34
37 33 34 39 44 40 42 37 38 39 36 41 40 38 39 41 38 38 38 35 34 33 33 37 34 35 39 40 42 42 41 40 41 41 40 40 41 37 36 35 35 34 34 32
39 39 41 38 35 33 32 33 35 37 33 38 39 37 38 38 40 39 37 32 34 32 34 34 32 35 34 36 37 37 38 39 40 39 39 39 39 39 37 35 33 32 32 31
40 36 31 31 31 29 30 29 32 33 36 36 36 34 36 36 37 35 34 33 32 31 31 31 32 30 33 34 35 35 36 38 37 36 36 37 34 35 36 32 32 32 31 30
30 27 21 26 27 31 31 31 32 33 33 36 36 30 32 38 31 33 32 34 32 28 26 26 27 28 32 33 33 34 33 35 34 33 34 33 33 31 32 32 32 32 29 29
29 29 21 26 33 33 33 33 33 35 37 36 36 34 36 32 28 29 32 29 27 27 27 27 26 23 28 31 31 31 31 31 30 31 32 31 31 31 29 30 31 30 29 28
31 27 22 32 28 26 33 33 33 36 38 36 35 34 33 33 28 25 26 23 24 30 26 25 22 28 29 29 30 30 31 32 33 33 33 32 32 31 29 29 29 29 28 27
29 29 33 31 29 31 32 35 36 41 36 34 33 32 34 27 23 22 25 27 31 30 23 29 22 23 27 28 30 31 32 32 32 32 32 31 31 32 30 25 24 26 25 25

GFSNW_sfc_temp_012.txt.gz
Temp
54 55 55 55 55 54 51 42 34 49 51 36 37 35 40 46 45 49 47 48 46 43 43 40 41 41 44 50 48 41 47 40 31 36 48 50 48 42 40 29 29 32 32 35
55 55 55 55 54 53 47 38 40 49 49 35 36 39 43 45 44 45 46 45 48 48 43 38 43 43 49 49 48 45 46 35 29 34 40 45 38 43 43 38 36 30 28 36
55 54 54 54 54 54 50 39 35 40 44 47 41 41 41 41 48 46 48 46 49 46 43 45 41 41 46 50 49 48 48 41 33 33 37 42 33 38 39 34 30 34 35 39
55 54 54 54 54 54 47 42 38 42 35 40 46 46 44 41 41 48 50 45 46 45 40 41 41 43 44 46 47 48 45 32 35 38 40 38 36 36 36 32 36 32 40 42
55 54 54 54 54 53 45 38 39 46 42 46 46 43 42 42 43 46 43 44 47 47 43 44 41 44 44 44 47 45 45 34 35 32 39 39 34 37 37 36 36 39 41 40
54 54 54 54 54 52 43 44 46 44 43 43 44 43 44 44 47 47 49 48 46 43 46 51 52 52 50 48 46 43 38 34 32 31 42 40 33 36 37 37 38 40 34 44
54 54 53 53 54 53 45 45 43 42 38 43 44 45 46 45 47 45 47 49 46 50 55 56 53 52 50 48 46 49 39 34 34 30 35 29 41 45 44 41 42 44 45 48
53 53 53 53 53 54 46 47 44 42 41 46 45 46 46 47 49 47 47 49 52 55 52 44 40 41 41 44 46 46 47 39 33 31 32 40 44 43 43 41 43 50 47 49
53 53 53 53 53 53 47 46 48 45 42 44 50 47 47 45 45 45 47 50 53 52 46 42 33 36 40 39 40 45 44 42 36 34 30 31 44 49 50 50 42 51 49 50
53 53 53 53 52 53 48 46 48 44 40 51 52 47 46 50 48 45 46 46 46 48 43 38 35 36 43 39 38 37 36 35 33 34 33 41 49 50 50 41 44 50 50 53
52 52 52 52 52 52 49 45 48 42 40 47 52 54 49 47 50 45 47 45 44 42 37 37 38 38 44 41 44 43 42 38 35 38 34 34 51 50 46 51 52 50 50 48
52 52 52 52 52 52 51 42 48 48 40 46 52 54 55 56 57 51 47 47 46 46 40 40 40 39 43 43 41 45 40 47 47 45 48 53 54 54 56 51 50 50 50 49
51 52 52 52 52 52 50 44 45 43 41 48 49 51 54 56 55 59 49 45 51 47 48 44 41 37 41 41 43 44 47 49 47 46 53 52 54 55 52 49 48 48 50 48
51 52 52 51 51 52 51 44 45 42 39 39 46 52 51 52 54 55 56 53 52 49 47 43 41 38 48 46 45 45 51 48 48 48 53 55 53 52 49 46 47 47 48 48
51 51 51 51 51 51 50 47 45 45 39 38 46 50 49 51 53 52 53 53 50 47 43 41 40 47 40 46 44 45 51 52 50 51 53 54 53 49 48 47 46 46 44 43
51 51 51 50 51 50 45 39 45 46 43 38 40 49 47 49 51 50 48 49 48 48 44 43 45 51 44 42 43 53 55 54 56 56 52 50 49 48 48 46 45 46 45 44
51 50 50 50 50 47 39 39 43 46 45 38 39 40 47 48 49 48 47 49 48 46 44 42 44 46 44 41 41 53 55 55 53 52 50 48 47 49 47 46 45 45 45 45
50 50 49 49 49 48 42 47 48 46 41 42 37 38 43 48 44 44 50 46 45 45 44 44 42 43 42 39 49 54 53 50 50 50 48 47 48 46 44 44 44 42 41 41
49 48 48 46 44 40 42 47 47 45 41 39 39 36 36 46 45 46 45 46 41 46 42 42 42 42 37 46 51 52 53 50 51 44 45 45 45 43 42 43 43 42 41 41
47 43 40 36 39 46 45 43 40 40 41 42 40 44 40 46 44 42 43 42 40 35 41 41 38 39 49 52 52 54 53 50 44 41 36 35 35 37 41 42 45 45 42 41
40 35 34 40 45 41 40 34 36 39 37 42 43 43 42 46 41 42 43 39 36 34 38 38 37 40 46 47 46 47 51 50 48 49 48 47 47 44 43 43 42 42 41 40
40 39 41 40 36 34 33 32 35 36 36 40 40 42 44 43 44 42 40 36 36 33 39 35 34 43 43 43 43 43 48 47 46 47 46 47 46 45 44 41 41 41 39 37
42 37 32 33 33 31 30 28 32 34 35 36 37 37 42 41 42 38 37 34 34 38 33 33 39 42 42 40 40 41 43 45 44 42 43 44 42 41 42 39 39 38 37 37
34 30 25 30 29 31 31 31 32 35 34 36 38 36 38 39 37 37 34 38 36 31 29 32 39 40 39 38 38 40 41 42 41 39 39 38 38 37 38 38 37 37 35 35
31 30 25 28 32 33 33 33 33 35 37 36 37 36 39 35 34 36 34 32 30 33 34 38 38 36 35 37 38 38 39 38 37 37 37 36 36 37 35 36 37 37 35 35
32 30 28 33 30 29 32 33 32 36 37 36 36 34 34 34 35 31 31 30 30 36 36 39 36 36 37 37 37 37 37 38 37 38 37 37 36 35 34 36 36 35 34 33
30 30 33 33 30 28 31 35 35 40 35 33 33 32 33 32 31 29 33 32 36 33 36 34 32 32 35 36 36 35 36 36 37 36 37 35 35 35 34 31 32 33 33 33

GFSNW_sfc_temp_015.txt.gz
Temp
55 55 55 55 55 54 51 41 34 49 56 38 41 37 38 48 47 50 50 52 50 48 47 45 46 46 48 54 54 45 50 42 33 39 50 53 49 43 42 30 32 34 33 35
55 55 55 55 55 54 49 40 40 49 48 36 38 38 42 48 45 48 49 47 51 52 48 42 47 48 53 53 51 48 49 38 31 35 44 50 43 46 46 42 38 30 28 36
55 55 54 54 55 55 49 41 35 41 47 48 44 39 44 43 50 49 52 50 52 49 47 50 46 45 49 53 53 49 51 42 35 35 38 44 34 40 43 38 31 35 37 40
55 54 54 54 54 54 49 44 40 44 37 44 44 46 46 43 44 50 53 48 49 49 44 45 44 48 48 50 51 50 47 33 38 41 43 42 39 39 40 33 35 30 39 40
55 54 54 54 54 54 47 39 39 47 48 51 48 47 47 46 46 49 47 48 50 50 47 47 43 47 48 47 49 47 47 35 36 32 41 41 37 43 42 38 38 36 36 35
54 54 54 54 54 53 44 46 47 43 46 49 49 48 48 47 50 50 52 51 49 47 49 53 54 55 54 52 47 43 41 35 33 32 44 42 36 38 38 39 41 38 34 41
54 54 54 54 53 53 46 46 45 41 41 49 49 49 50 49 50 47 50 53 49 51 58 57 56 55 53 52 48 48 39 34 35 32 37 30 44 48 46 42 47 49 48 49
54 53 53 53 53 53 46 46 44 42 43 47 50 50 49 51 52 50 50 52 55 58 54 47 44 43 42 46 48 46 45 39 34 31 34 42 45 49 44 40 43 52 47 49
53 53 53 53 53 53 48 47 47 44 40 48 54 51 52 47 48 48 50 54 57 55 49 44 36 36 42 40 39 46 46 44 36 34 30 31 46 54 54 52 42 53 51 52
52 52 52 52 53 53 49 46 48 43 40 53 54 51 50 54 52 50 50 49 49 53 42 38 38 37 46 39 41 38 38 37 33 33 32 40 52 54 54 41 45 53 50 54
52 52 52 52 52 52 50 45 48 42 38 43 53 58 54 53 54 48 50 47 48 45 41 41 41 40 45 43 49 46 43 39 37 36 32 33 56 55 47 53 56 55 54 49
52 52 52 52 52 52 52 43 48 48 39 41 51 58 60 61 61 55 53 49 49 49 42 40 41 38 44 45 39 52 43 50 46 47 49 59 60 56 59 57 54 55 53 53
52 52 52 52 52 52 51 47 46 44 39 44 47 53 59 61 60 62 52 51 53 51 53 43 42 38 42 37 44 49 53 56 49 49 57 58 60 61 57 54 52 53 53 52
52 52 52 52 52 52 51 47 47 43 37 36 47 56 55 57 57 57 57 56 53 51 50 43 41 38 47 44 47 47 52 52 51 52 57 60 58 56 54 51 52 51 52 52
51 52 51 52 51 51 51 50 48 47 38 36 43 52 51 55 57 55 56 57 53 48 44 41 40 44 45 50 48 47 55 52 50 51 58 57 56 54 53 51 50 50 48 46
50 51 51 51 51 51 47 38 44 46 44 37 40 50 49 51 54 54 52 52 50 47 44 43 45 49 45 39 43 56 61 62 62 58 58 55 53 52 52 50 49 49 48 47
51 50 50 50 50 46 40 39 42 46 44 37 39 42 47 50 50 49 49 50 48 46 45 42 45 46 44 42 40 55 60 60 60 60 56 52 51 52 51 50 48 48 47 47
50 50 49 49 49 47 43 48 48 47 41 40 37 40 45 49 45 45 50 45 46 45 44 45 42 44 43 39 50 54 57 59 58 57 56 52 53 50 48 47 47 45 44 44
49 48 48 48 45 43 43 47 47 46 40 37 40 38 37 48 46 48 45 49 41 47 42 43 42 41 38 47 51 54 57 53 55 52 51 49 48 47 46 46 46 44 43 44
48 47 43 37 43 46 46 42 39 39 40 40 41 49 41 48 46 44 45 44 41 37 44 45 39 39 50 54 56 57 55 55 50 44 38 37 37 40 44 45 48 47 45 44
43 38 36 43 46 41 39 34 34 37 36 43 46 49 46 49 43 44 45 40 38 35 40 40 39 41 50 50 50 51 51 53 53 54 54 49 49 47 46 47 48 46 45 43
41 39 42 41 35 34 33 33 34 36 36 43 44 45 48 46 48 44 42 37 38 33 42 37 35 45 45 47 46 46 47 51 52 52 50 51 50 50 48 47 45 44 44 41
45 39 33 34 36 31 32 30 32 33 35 35 37 38 44 44 45 42 40 34 35 41 35 35 41 45 46 44 43 43 45 48 48 46 48 49 47 47 45 44 44 42 41 40
34 31 29 30 31 32 32 32 32 35 35 36 38 38 40 42 39 41 34 39 38 32 30 34 42 41 41 42 43 42 43 44 44 43 44 41 42 42 43 42 41 41 39 39
32 32 28 30 34 34 34 34 34 35 37 37 37 37 40 36 35 39 36 33 31 34 36 40 39 39 40 40 40 41 42 41 40 40 40 39 39 39 38 39 40 40 38 38
32 31 29 33 31 32 34 34 33 37 38 36 36 34 35 34 37 32 31 31 32 37 35 37 39 38 39 40 40 40 41 42 41 41 41 40 40 38 38 39 39 38 38 37
31 31 36 34 32 32 35 39 40 42 36 33 33 32 33 34 33 31 37 34 35 34 35 37 37 35 36 37 37 38 38 40 40 39 40 39 39 39 38 35 36 35 36 35